GW4634 Weather Reports


time (UTC)temp
C
wind
direction
speed
KPH
gust
KPH
rain 1hr
cm
rain 24hr
cm
rain mn
cm
humidity
%
barometer
mb
20260508114524 8 265 1.6 8.0 0.00 0.00 0.00 80 1012.7
20260508113009 8 262 0.0 6.4 0.00 0.00 0.00 78 1012.6
20260508111515 8 266 1.6 8.0 0.00 0.00 0.00 77 1012.5
20260508110012 9 257 3.2 11.3 0.00 0.00 0.00 76 1012.3
20260508104510 9 254 3.2 12.9 0.00 0.00 0.00 76 1012.2
20260508103034 8 265 6.4 12.9 0.00 0.00 0.00 76 1012.2
20260508101513 8 240 4.8 9.7 0.00 0.00 0.00 81 1012.3
20260508100018 7 240 0.0 9.7 0.00 0.00 0.00 84 1012.5
20260508094517 7 220 0.0 1.6 0.00 0.00 0.00 83 1012.4
20260508093025 7 218 0.0 1.6 0.00 0.00 0.00 83 1012.4
20260508091515 7 223 0.0 3.2 0.00 0.00 0.00 83 1012.4
20260508090016 7 213 0.0 3.2 0.00 0.00 0.00 82 1012.6
20260508084516 7 218 1.6 6.4 0.00 0.00 0.00 81 1012.6
20260508083019 7 256 0.0 4.8 0.00 0.00 0.00 81 1012.7
20260508081520 7 203 1.6 8.0 0.00 0.00 0.00 81 1012.7
20260508080017 7 242 1.6 6.4 0.00 0.00 0.00 80 1012.8
20260508074528 7 205 0.0 8.0 0.00 0.00 0.00 79 1012.7
20260508073019 8 227 1.6 11.3 0.00 0.00 0.00 78 1012.8
20260508071524 8 249 6.4 14.5 0.00 0.00 0.00 77 1012.9
20260508070032 8 257 6.4 14.5 0.00 0.00 0.00 75 1013.0
20260508064523 8 235 9.7 22.5 0.00 0.00 0.00 73 1012.9
20260508063025 8 262 4.8 11.3 0.00 0.00 0.00 72 1012.9
20260508061518 8 245 3.2 6.4 0.00 0.00 0.00 72 1012.9
20260508060024 8 217 1.6 6.4 0.00 0.00 0.00 72 1013.1
20260508054527 8 213 0.0 6.4 0.00 0.00 0.00 73 1013.0
20260508053014 8 224 0.0 3.2 0.00 0.00 0.00 73 1013.2
20260508051514 8 217 0.0 1.6 0.00 0.00 0.00 72 1013.3
20260508050023 8 212 0.0 1.6 0.00 0.00 0.00 71 1013.4
20260508044520 8 224 0.0 4.8 0.00 0.00 0.00 69 1013.5
20260508043020 9 244 0.0 3.2 0.00 0.00 0.00 68 1013.4
20260508041512 9 256 0.0 6.4 0.00 0.00 0.00 67 1013.4
20260508040024 9 221 4.8 9.7 0.00 0.00 0.00 66 1013.4
20260508034523 10 244 4.8 12.9 0.00 0.00 0.00 65 1013.4
20260508033024 9 259 3.2 11.3 0.00 0.00 0.00 66 1013.6
20260508031525 9 219 6.4 17.7 0.00 0.00 0.00 64 1013.7
20260508030042 8 262 4.8 11.3 0.00 0.00 0.00 66 1013.7
20260508024516 8 238 0.0 8.0 0.00 0.00 0.00 71 1013.8
20260508023021 6 238 0.0 1.6 0.00 0.00 0.00 81 1013.8
20260508021524 6 273 0.0 0.0 0.00 0.00 0.00 81 1013.6
20260508020027 6 273 0.0 0.0 0.00 0.00 0.00 80 1013.7
20260508014528 6 272 0.0 0.0 0.00 0.00 0.00 78 1013.5
20260508013015 6 273 0.0 0.0 0.00 0.00 0.00 74 1013.4
20260508011515 6 273 0.0 0.0 0.00 0.00 0.00 69 1013.2
20260508010027 7 273 0.0 0.0 0.00 0.00 0.00 64 1013.2
20260508004527 8 273 0.0 0.0 0.00 0.00 0.00 60 1013.1
20260508003026 10 273 0.0 0.0 0.00 0.00 0.00 55 1013.1
20260508001528 11 272 0.0 3.2 0.00 0.00 0.00 49 1013.0
20260508000022 12 280 0.0 4.8 0.00 0.00 0.00 48 1012.9
20260507234535 12 279 0.0 12.9 0.00 0.00 0.00 45 1012.9
20260507233027 13 269 1.6 8.0 0.00 0.00 0.00 45 1012.9
20260507231529 13 75 0.0 12.9 0.00 0.00 0.00 45 1012.8
20260507230005 13 286 8.0 17.7 0.00 0.00 0.00 47 1013.0
20260507224504 13 292 4.8 14.5 0.00 0.00 0.00 45 1013.1
20260507223005 13 295 8.0 17.7 0.00 0.00 0.00 42 1013.2
20260507221507 13 249 4.8 20.9 0.00 0.00 0.00 44 1013.1
20260507220017 13 272 8.0 24.1 0.00 0.00 0.00 42 1013.2
20260507214504 13 37 3.2 20.9 0.00 0.00 0.00 43 1012.9
20260507213010 13 269 6.4 19.3 0.00 0.00 0.00 44 1012.8
20260507211509 13 284 9.7 24.1 0.00 0.00 0.00 45 1012.9
20260507210011 13 330 3.2 14.5 0.00 0.00 0.00 50 1012.8
20260507204509 12 320 4.8 20.9 0.00 0.00 0.00 51 1012.6
20260507203004 12 293 3.2 17.7 0.00 0.00 0.00 56 1012.5
20260507201503 11 262 6.4 19.3 0.00 0.00 0.00 56 1012.7
20260507200011 12 224 3.2 12.9 0.00 0.00 0.00 57 1012.6
20260507194511 12 241 1.6 24.1 0.00 0.00 0.00 54 1012.6
20260507193008 13 248 11.3 24.1 0.00 0.00 0.00 50 1012.7
20260507191508 13 263 12.9 24.1 0.00 0.00 0.00 54 1012.7
20260507190008 12 238 12.9 20.9 0.00 0.00 0.00 48 1012.6
20260507184512 12 288 12.9 25.7 0.00 0.00 0.00 54 1012.8
20260507183020 12 269 6.4 16.1 0.00 0.00 0.00 54 1012.9
20260507181515 12 286 8.0 20.9 0.00 0.00 0.00 55 1012.9
20260507180016 12 276 14.5 22.5 0.00 0.00 0.00 53 1013.0
20260507174512 12 301 8.0 16.1 0.00 0.00 0.00 56 1013.0
20260507173011 12 223 9.7 14.5 0.00 0.00 0.00 61 1013.1
20260507171526 12 293 8.0 19.3 0.00 0.00 0.00 54 1013.1
20260507170024 13 260 11.3 19.3 0.00 0.00 0.00 53 1013.2
20260507164527 12 274 8.0 17.7 0.00 0.00 0.00 60 1013.2
20260507163008 12 287 3.2 12.9 0.00 0.00 0.00 55 1013.1
20260507161513 12 297 4.8 12.9 0.00 0.00 0.00 58 1013.2
20260507160023 12 290 3.2 19.3 0.00 0.00 0.00 55 1013.4
20260507154522 12 248 4.8 16.1 0.00 0.00 0.00 57 1013.4
20260507153025 11 294 6.4 12.9 0.00 0.00 0.00 58 1013.4
20260507151513 11 264 8.0 12.9 0.00 0.00 0.00 62 1013.4
20260507150016 11 264 4.8 14.5 0.00 0.00 0.00 64 1013.5
20260507144518 11 276 3.2 11.3 0.00 0.00 0.00 64 1013.4
20260507143026 11 314 6.4 14.5 0.00 0.00 0.00 69 1013.4
20260507141531 11 224 4.8 12.9 0.00 0.00 0.00 71 1013.4
20260507140028 10 188 4.8 9.7 0.00 0.00 0.00 72 1013.6
20260507134519 10 191 3.2 8.0 0.00 0.00 0.00 74 1013.7
20260507133023 10 175 1.6 8.0 0.00 0.00 0.00 74 1013.8
20260507131519 10 176 1.6 6.4 0.00 0.00 0.00 75 1013.8
20260507130038 8 193 0.0 8.0 0.00 0.00 0.00 77 1013.9
20260507124530 8 232 1.6 6.4 0.00 0.00 0.00 78 1013.8
20260507123021 7 207 0.0 8.0 0.00 0.00 0.00 81 1013.8
20260507121525 7 215 1.6 4.8 0.00 0.00 0.00 82 1013.8
20260507120024 6 248 3.2 6.4 0.00 0.00 0.00 83 1013.7